Weather History for Hillsdale, MI

Change the Weather History Date:

Tuesday, September 10, 2013

  Actual Average Record
Temperature  
Mean Temperature 84 °F -  
Max Temperature 92 °F 75 °F 92 °F (1983)
Min Temperature 75 °F 51 °F 34 °F (1969)
Cooling Degree Days 18    
Growing Degree Days 34 (Base 50)    
Moisture  
Dew Point 68 °F    
Average Humidity 63    
Maximum Humidity 89    
Minimum Humidity 37    
Precipitation  
Precipitation 0.00 in - - ()
Sea Level Pressure  
Sea Level Pressure 30.02 in    
Wind  
Wind Speed 7 mph (WSW)    
Max Wind Speed 12 mph    
Max Gust Speed 18 mph    
Visibility 10 miles    
Events      
Averages and records for this station are not official NWS values.
T = Trace of Precipitation, MM = Missing Value Source: NWS Daily Summary

Daily Weather History Graph

Daily Weather History Graph

Search for Another Location

Airport:

Trip Planner

Search our weather history database for the weather conditions in past years. The results will help you decide how hot, cold, wet, or windy it might be!

Date:

Astronomy

Sep. 10, 2013 Rise Set
Actual Time 7:13 AM EDT 7:56 PM EDT
Civil Twilight 6:45 AM EDT 8:24 PM EDT
Nautical Twilight 6:11 AM EDT 8:57 PM EDT
Astronomical Twilight 5:37 AM EDT 9:31 PM EDT
Moon 12:43 PM EDT (9/10) 10:52 PM EDT (9/10)
Length of Visible Light 13h 38m
Length of Day
12h 42m
Waxing Crescent, 28% of the Moon is Illuminated
Sep 10
Waxing Crescent
Sep 12
First Quarter
Sep 19
Full
Sep 26
Last Quarter
Oct 4
New

Hourly Weather History & Observations

Time (EDT) Temp. Heat Index Dew Point Humidity Pressure Visibility Wind Dir Wind Speed Gust Speed Precip Events Conditions
12:15 AM 78.3 °F - 70.5 °F 77% 29.94 in 10.0 mi SSW 6.9 mph - N/A   Clear
12:35 AM 78.3 °F - 70.9 °F 78% 29.94 in 10.0 mi SSW 6.9 mph - N/A   Clear
12:54 AM 78.1 °F - 71.4 °F 80% 29.94 in 10.0 mi SSW 6.9 mph - N/A   Clear
1:15 AM 77.5 °F - 71.6 °F 82% 29.94 in 10.0 mi SSW 5.8 mph - N/A   Clear
1:34 AM 77.5 °F - 72.0 °F 83% 29.94 in 10.0 mi SSW 6.9 mph - N/A   Clear
1:54 AM 77.5 °F - 72.3 °F 84% 29.95 in 10.0 mi SW 6.9 mph - N/A   Clear
2:15 AM 77.2 °F - 72.3 °F 85% 29.95 in 10.0 mi SW 5.8 mph - N/A   Clear
2:34 AM 77.0 °F - 72.7 °F 86% 29.95 in 10.0 mi SW 4.6 mph - N/A   Clear
2:54 AM 76.8 °F - 72.7 °F 87% 29.96 in 10.0 mi SW 5.8 mph - N/A   Clear
3:14 AM 76.5 °F - 72.3 °F 87% 29.96 in 10.0 mi SW 5.8 mph - N/A   Clear
3:34 AM 76.5 °F - 72.5 °F 87% 29.96 in 10.0 mi SW 5.8 mph - N/A   Clear
3:55 AM 76.5 °F - 72.3 °F 87% 29.97 in 10.0 mi WSW 5.8 mph - N/A   Clear
4:14 AM 76.8 °F - 72.1 °F 85% 29.97 in 10.0 mi WSW 6.9 mph - N/A   Clear
4:34 AM 77.0 °F - 72.0 °F 84% 29.98 in 10.0 mi WSW 6.9 mph - N/A   Clear
4:55 AM 77.0 °F - 72.0 °F 84% 29.98 in 10.0 mi WSW 5.8 mph - N/A   Clear
5:14 AM 76.5 °F - 72.0 °F 86% 29.98 in 10.0 mi WSW 5.8 mph - N/A   Clear
5:35 AM 76.3 °F - 72.1 °F 87% 29.99 in 10.0 mi WSW 5.8 mph - N/A   Clear
5:55 AM 75.9 °F - 72.1 °F 88% 29.99 in 7.0 mi WSW 5.8 mph - N/A   Clear
6:14 AM 75.9 °F - 72.0 °F 87% 30.00 in 7.0 mi WSW 8.1 mph - N/A   Clear
6:35 AM 76.1 °F - 72.0 °F 87% 30.00 in 10.0 mi WSW 6.9 mph - N/A   Clear
6:54 AM 75.7 °F - 72.0 °F 88% 30.01 in 10.0 mi WSW 5.8 mph - N/A   Clear
7:15 AM 75.7 °F - 71.8 °F 87% 30.01 in 7.0 mi WSW 4.6 mph - N/A   Clear
7:35 AM 75.4 °F - 71.8 °F 89% 30.02 in 7.0 mi WSW 3.5 mph - N/A   Clear
7:54 AM 75.7 °F - 71.8 °F 87% 30.02 in 7.0 mi WSW 5.8 mph - N/A   Clear
8:15 AM 76.5 °F - 71.8 °F 85% 30.02 in 7.0 mi WSW 5.8 mph - N/A   Clear
8:35 AM 77.4 °F - 71.8 °F 83% 30.03 in 10.0 mi WSW 4.6 mph - N/A   Clear
8:54 AM 78.3 °F - 72.0 °F 81% 30.03 in 7.0 mi SW 5.8 mph - N/A   Clear
9:15 AM 79.0 °F - 71.8 °F 78% 30.03 in 10.0 mi SW 5.8 mph - N/A   Clear
9:34 AM 80.2 °F 83.9 °F 71.2 °F 74% 30.04 in 10.0 mi WSW 5.8 mph - N/A   Clear
9:54 AM 81.3 °F 85.4 °F 71.1 °F 71% 30.04 in 10.0 mi WSW 6.9 mph - N/A   Clear
10:15 AM 82.2 °F 86.4 °F 70.7 °F 68% 30.05 in 10.0 mi WSW 6.9 mph - N/A   Clear
10:34 AM 83.5 °F 88.0 °F 70.7 °F 65% 30.05 in 10.0 mi WSW 6.9 mph - N/A   Clear
10:54 AM 84.2 °F 88.7 °F 70.3 °F 63% 30.05 in 10.0 mi West 8.1 mph - N/A   Clear
11:15 AM 85.3 °F 89.1 °F 69.1 °F 58% 30.05 in 10.0 mi West 9.2 mph - N/A   Clear
11:34 AM 86.5 °F 91.0 °F 69.8 °F 57% 30.05 in 10.0 mi West 9.2 mph - N/A   Clear
11:54 AM 87.4 °F 91.5 °F 68.9 °F 54% 30.05 in 10.0 mi WSW 8.1 mph - N/A   Clear
12:15 PM 88.0 °F 91.4 °F 68.0 °F 51% 30.05 in 10.0 mi West 10.4 mph - N/A   Clear
12:34 PM 88.5 °F 91.9 °F 68.0 °F 50% 30.05 in 10.0 mi West 8.1 mph - N/A   Clear
12:55 PM 89.4 °F 92.7 °F 67.6 °F 48% 30.06 in 10.0 mi West 9.2 mph - N/A   Clear
1:14 PM 89.8 °F 92.5 °F 66.6 °F 46% 30.05 in 10.0 mi West 10.4 mph - N/A   Clear
1:34 PM 90.0 °F 92.0 °F 65.7 °F 44% 30.05 in 10.0 mi WSW 6.9 mph 17.3 mph N/A   Clear
1:55 PM 90.3 °F 92.2 °F 64.8 °F 43% 30.06 in 10.0 mi WNW 10.4 mph - N/A   Clear
2:14 PM 90.9 °F 92.7 °F 64.6 °F 42% 30.05 in 10.0 mi West 10.4 mph - N/A   Clear
2:35 PM 91.6 °F 93.1 °F 64.2 °F 40% 30.05 in 10.0 mi West 9.2 mph - N/A   Clear
2:55 PM 91.8 °F 93.8 °F 64.8 °F 41% 30.05 in 10.0 mi West 6.9 mph - N/A   Clear
3:14 PM 91.9 °F 93.7 °F 64.2 °F 40% 30.04 in 10.0 mi West 8.1 mph - N/A   Clear
3:35 PM 91.9 °F 92.9 °F 63.1 °F 38% 30.04 in 10.0 mi SW 8.1 mph 18.4 mph N/A   Clear
3:54 PM 92.5 °F 93.3 °F 62.4 °F 37% 30.04 in 10.0 mi West 11.5 mph 16.1 mph N/A   Clear
4:14 PM 92.5 °F 93.7 °F 63.5 °F 38% 30.04 in 10.0 mi West 8.1 mph - N/A   Clear
4:35 PM 92.5 °F 93.3 °F 63.0 °F 37% 30.03 in 10.0 mi West 10.4 mph - N/A   Clear
4:54 PM 92.3 °F 93.1 °F 62.4 °F 37% 30.03 in 10.0 mi West 9.2 mph - N/A   Clear
5:14 PM 91.9 °F 92.5 °F 62.1 °F 37% 30.03 in 10.0 mi SW 11.5 mph 16.1 mph N/A   Clear
5:35 PM 91.8 °F 92.2 °F 61.7 °F 37% 30.03 in 10.0 mi WSW 6.9 mph - N/A   Clear
5:54 PM 91.2 °F 91.8 °F 62.4 °F 38% 30.03 in 10.0 mi WSW 5.8 mph - N/A   Clear
6:14 PM 90.5 °F 91.4 °F 63.1 °F 40% 30.03 in 10.0 mi WSW 5.8 mph - N/A   Clear
6:35 PM 89.8 °F 90.7 °F 63.5 °F 41% 30.03 in 10.0 mi WSW 4.6 mph - N/A   Clear
6:54 PM 88.2 °F 89.6 °F 64.2 °F 45% 30.04 in 10.0 mi SW 3.5 mph - N/A   Clear
7:14 PM 86.5 °F 88.4 °F 65.1 °F 49% 30.04 in 10.0 mi SW 4.6 mph - N/A   Clear
7:35 PM 85.5 °F 86.8 °F 64.4 °F 49% 30.04 in 10.0 mi SSW 4.6 mph - N/A   Clear
7:54 PM 84.6 °F 85.6 °F 63.7 °F 49% 30.05 in 10.0 mi SW 4.6 mph - N/A   Clear
8:14 PM 83.8 °F 84.9 °F 63.1 °F 50% 30.05 in 10.0 mi SW 4.6 mph - N/A   Clear
8:35 PM 83.3 °F 84.3 °F 63.1 °F 50% 30.06 in 10.0 mi SW 4.6 mph - N/A   Clear
8:54 PM 82.8 °F 83.8 °F 63.1 °F 51% 30.06 in 10.0 mi SW 4.6 mph - N/A   Clear
9:15 PM 82.0 °F 83.1 °F 62.8 °F 52% 30.07 in 10.0 mi SW 4.6 mph - N/A   Clear
9:35 PM 81.9 °F 82.9 °F 62.6 °F 52% 30.07 in 10.0 mi SW 4.6 mph - N/A   Clear
9:54 PM 81.9 °F 82.9 °F 62.4 °F 52% 30.07 in 10.0 mi SW 4.6 mph - N/A   Clear
10:15 PM 81.9 °F 82.9 °F 62.4 °F 52% 30.06 in 10.0 mi SW 4.6 mph - N/A   Clear
10:34 PM 81.1 °F 82.3 °F 62.6 °F 53% 30.06 in 10.0 mi SW 3.5 mph - N/A   Clear
10:54 PM 81.0 °F 82.1 °F 62.6 °F 53% 30.06 in 10.0 mi SW 4.6 mph - N/A   Clear
11:15 PM 81.1 °F 82.3 °F 62.8 °F 53% 30.07 in 10.0 mi SSW 5.8 mph - N/A   Clear
11:34 PM 81.0 °F 82.2 °F 62.8 °F 54% 30.06 in 10.0 mi SW 5.8 mph - N/A   Clear
11:54 PM 81.0 °F 82.2 °F 63.0 °F 54% 30.07 in 10.0 mi SW 8.1 mph - N/A   Clear